When you browse on this site, cookies collect data to enhance your experience and personalize the content and advertising you see.
Visit our Privacy Policy to learn more. By continuing to use the site, you agree to this use of cookies and data.
  • In Czech Republic
  • List of Countries
  • For 7 days
  • Water Temperature
  • Weather Map
  • Weather Widgets
  • user-avatar
    Login

    Hourly Weather La Esperanza

    Today, 18 February, Tuesday

    Time Temperature Precipitation Wind Pressure Humidity
    00:00 +14°C° 0 mm 2 mps 615 mmHg 93%
    01:00 +14°C° 0 mm 2 mps 615 mmHg 93%
    02:00 +13°C° 0 mm 2 mps 615 mmHg 93%
    03:00 +13°C° 0 mm 2 mps 614 mmHg 93%
    04:00 +13°C° 0 mm 2 mps 614 mmHg 93%
    05:00 +13°C° 0 mm 2 mps 614 mmHg 93%
    06:00 +12°C° 0 mm 2 mps 614 mmHg 92%
    07:00 +15°C° 0 mm 2 mps 616 mmHg 75%
    08:00 +18°C° 0 mm 2 mps 618 mmHg 58%
    09:00 +21°C° 0 mm 2 mps 619 mmHg 41%
    10:00 +24°C° 0 mm 2 mps 619 mmHg 36%
    11:00 +26°C° 0 mm 2 mps 620 mmHg 30%
    12:00 +28°C° 0 mm 2 mps 620 mmHg 24%
    13:00 +28°C° 0 mm 2 mps 619 mmHg 23%
    14:00 +28°C° 0 mm 2 mps 619 mmHg 23%
    15:00 +29°C° 0 mm 2 mps 618 mmHg 23%
    16:00 +26°C° 0 mm 2 mps 617 mmHg 31%
    17:00 +23°C° 0 mm 2 mps 617 mmHg 39%
    18:00 +19°C° 0 mm 2 mps 616 mmHg 47%
    19:00 +18°C° 0 mm 2 mps 616 mmHg 59%
    20:00 +16°C° 0 mm 2 mps 616 mmHg 71%
    21:00 +14°C° 0 mm 2 mps 616 mmHg 84%
    22:00 +14°C° 0 mm 2 mps 616 mmHg 87%
    23:00 +14°C° 0 mm 2 mps 616 mmHg 90%

    Tomorrow, 19 February, Wednesday

    Time Temperature Precipitation Wind Pressure Humidity
    00:00 +14°C° 0 mm 2 mps 616 mmHg 93%
    01:00 +14°C° 0 mm 2 mps 615 mmHg 93%
    02:00 +14°C° 0 mm 2 mps 615 mmHg 93%
    03:00 +13°C° 0 mm 2 mps 615 mmHg 93%
    04:00 +13°C° 0 mm 2 mps 615 mmHg 92%
    05:00 +13°C° 0 mm 2 mps 616 mmHg 92%
    06:00 +13°C° 0 mm 2 mps 616 mmHg 92%
    07:00 +16°C° 0 mm 2 mps 617 mmHg 79%
    08:00 +18°C° 0 mm 2 mps 619 mmHg 67%
    09:00 +21°C° 0 mm 2 mps 620 mmHg 55%
    10:00 +24°C° 0 mm 2 mps 621 mmHg 46%
    11:00 +26°C° 0 mm 2 mps 621 mmHg 38%
    12:00 +28°C° 0 mm 3 mps 621 mmHg 30%
    13:00 +28°C° 0 mm 3 mps 620 mmHg 29%
    14:00 +28°C° 0 mm 3 mps 620 mmHg 29%
    15:00 +28°C° 0 mm 3 mps 619 mmHg 29%
    16:00 +25°C° 0 mm 3 mps 618 mmHg 37%
    17:00 +22°C° 0 mm 3 mps 618 mmHg 45%
    18:00 +20°C° 0 mm 2 mps 617 mmHg 53%
    19:00 +18°C° 0 mm 2 mps 617 mmHg 65%
    20:00 +17°C° 0 mm 2 mps 617 mmHg 78%
    21:00 +15°C° 0 mm 2 mps 617 mmHg 90%
    22:00 +15°C° 0 mm 2 mps 617 mmHg 92%
    23:00 +15°C° 0 mm 2 mps 617 mmHg 93%

    Day after tomorrow, 20 February, Thursday

    Time Temperature Precipitation Wind Pressure Humidity
    00:00 +15°C° 0 mm 2 mps 617 mmHg 94%
    01:00 +15°C° 0 mm 2 mps 617 mmHg 94%
    02:00 +15°C° 0 mm 2 mps 616 mmHg 93%
    03:00 +15°C° 0 mm 2 mps 616 mmHg 93%
    04:00 +15°C° 0 mm 2 mps 616 mmHg 92%
    05:00 +15°C° 0 mm 2 mps 617 mmHg 91%
    06:00 +15°C° 0 mm 2 mps 617 mmHg 90%
    07:00 +16°C° 0 mm 2 mps 618 mmHg 79%
    08:00 +18°C° 0 mm 2 mps 619 mmHg 67%
    09:00 +20°C° 0 mm 2 mps 620 mmHg 56%
    10:00 +23°C° 0 mm 2 mps 620 mmHg 48%
    11:00 +25°C° 0 mm 3 mps 621 mmHg 39%
    12:00 +27°C° 0 mm 3 mps 621 mmHg 31%
    13:00 +27°C° 0 mm 3 mps 620 mmHg 30%
    14:00 +27°C° 0 mm 3 mps 620 mmHg 30%
    15:00 +27°C° 0 mm 3 mps 619 mmHg 30%
    16:00 +25°C° 0 mm 3 mps 618 mmHg 38%
    17:00 +22°C° 0 mm 3 mps 618 mmHg 47%
    18:00 +19°C° 0 mm 2 mps 617 mmHg 55%
    19:00 +18°C° 0 mm 2 mps 617 mmHg 67%
    20:00 +16°C° 0 mm 2 mps 617 mmHg 78%
    21:00 +15°C° 0 mm 2 mps 617 mmHg 90%
    22:00 +15°C° 0 mm 2 mps 617 mmHg 91%
    23:00 +14°C° 0 mm 2 mps 617 mmHg 91%

    21 February, Friday

    Time Temperature Precipitation Wind Pressure Humidity
    00:00 +14°C° 0 mm 2 mps 617 mmHg 92%
    07:00 +14°C° 0 mm 3 mps 618 mmHg 83%
    08:00 +17°C° 0 mm 3 mps 619 mmHg 73%
    09:00 +19°C° 0 mm 3 mps 620 mmHg 64%
    10:00 +20°C° 0 mm 4 mps 621 mmHg 57%
    11:00 +22°C° 0 mm 4 mps 621 mmHg 51%
    12:00 +23°C° 0 mm 5 mps 621 mmHg 45%
    13:00 +23°C° 0 mm 5 mps 620 mmHg 47%
    14:00 +22°C° 0 mm 5 mps 620 mmHg 49%
    15:00 +22°C° 0 mm 5 mps 619 mmHg 52%
    16:00 +20°C° 0 mm 4 mps 618 mmHg 59%
    17:00 +18°C° 0 mm 3 mps 618 mmHg 67%
    18:00 +16°C° 0 mm 3 mps 618 mmHg 75%
    19:00 +14°C° 0 mm 3 mps 618 mmHg 80%
    20:00 +14°C° 0 mm 3 mps 618 mmHg 86%
    21:00 +13°C° 0 mm 3 mps 618 mmHg 91%
    22:00 +13°C° 0 mm 3 mps 618 mmHg 91%
    23:00 +13°C° 0 mm 3 mps 618 mmHg 91%

    22 February, Saturday

    Time Temperature Precipitation Wind Pressure Humidity
    00:00 +13°C° 0 mm 3 mps 618 mmHg 90%
    01:00 +13°C° 0 mm 3 mps 618 mmHg 90%
    02:00 +13°C° 0 mm 3 mps 618 mmHg 90%
    03:00 +13°C° 0 mm 3 mps 617 mmHg 90%
    04:00 +13°C° 0 mm 3 mps 617 mmHg 90%
    05:00 +12°C° 0 mm 3 mps 618 mmHg 89%
    06:00 +12°C° 0 mm 3 mps 618 mmHg 89%
    07:00 +14°C° 0 mm 4 mps 619 mmHg 81%
    08:00 +15°C° 0 mm 4 mps 620 mmHg 72%
    09:00 +17°C° 0 mm 4 mps 620 mmHg 64%
    10:00 +19°C° 0 mm 4 mps 621 mmHg 57%
    11:00 +21°C° 0 mm 5 mps 621 mmHg 50%
    12:00 +23°C° 0 mm 5 mps 621 mmHg 43%
    13:00 +23°C° 0 mm 5 mps 621 mmHg 42%
    14:00 +23°C° 0 mm 5 mps 620 mmHg 42%
    15:00 +23°C° 0 mm 5 mps 619 mmHg 41%
    16:00 +21°C° 0 mm 4 mps 619 mmHg 50%
    17:00 +19°C° 0 mm 3 mps 618 mmHg 59%
    18:00 +16°C° 0 mm 3 mps 618 mmHg 68%
    19:00 +15°C° 0 mm 2 mps 618 mmHg 77%
    20:00 +14°C° 0 mm 2 mps 618 mmHg 85%
    21:00 +13°C° 0 mm 2 mps 618 mmHg 93%
    22:00 +13°C° 0 mm 2 mps 618 mmHg 93%
    23:00 +13°C° 0 mm 2 mps 618 mmHg 93%

    23 February, Sunday

    Time Temperature Precipitation Wind Pressure Humidity
    00:00 +13°C° 0 mm 2 mps 618 mmHg 93%
    01:00 +13°C° 0 mm 2 mps 617 mmHg 93%
    02:00 +13°C° 0 mm 2 mps 617 mmHg 92%
    03:00 +13°C° 0 mm 2 mps 617 mmHg 92%
    04:00 +13°C° 0 mm 2 mps 617 mmHg 93%
    05:00 +12°C° 0 mm 3 mps 617 mmHg 93%
    06:00 +12°C° 0 mm 3 mps 617 mmHg 94%
    07:00 +14°C° 0 mm 3 mps 618 mmHg 87%
    08:00 +16°C° 0 mm 3 mps 619 mmHg 80%
    09:00 +17°C° 0 mm 3 mps 620 mmHg 73%
    10:00 +19°C° 0.1 mm 3 mps 620 mmHg 65%
    11:00 +20°C° 0.1 mm 3 mps 620 mmHg 58%
    12:00 +22°C° 0.1 mm 3 mps 620 mmHg 51%
    13:00 +22°C° 0 mm 3 mps 619 mmHg 50%
    14:00 +22°C° 0 mm 3 mps 619 mmHg 49%
    15:00 +24°C° 0 mm 3 mps 618 mmHg 48%
    16:00 +21°C° 0 mm 2 mps 617 mmHg 57%
    17:00 +19°C° 0 mm 2 mps 617 mmHg 66%
    18:00 +17°C° 0 mm 2 mps 616 mmHg 75%
    19:00 +16°C° 0 mm 2 mps 616 mmHg 81%
    20:00 +15°C° 0 mm 2 mps 616 mmHg 87%
    21:00 +13°C° 0 mm 2 mps 616 mmHg 93%
    22:00 +13°C° 0 mm 2 mps 616 mmHg 92%
    23:00 +13°C° 0 mm 2 mps 616 mmHg 92%
    Show more